Weather History for Cordova, AK

Change the Weather History Date:

Tuesday, February 18, 2014

  Actual Average Record
Temperature  
Mean Temperature 28 °F -  
Max Temperature 37 °F 35 °F 50 °F (1998)
Min Temperature 19 °F 19 °F -14 °F (1950)
Degree Days  
Heating Degree Days 37    
Moisture  
Dew Point 19 °F    
Average Humidity 66    
Maximum Humidity 93    
Minimum Humidity 44    
Precipitation  
Precipitation 0.02 in - - ()
Snow  
Snow 0.00 in - - ()
Snow Depth 17.00 in    
Sea Level Pressure  
Sea Level Pressure 29.31 in    
Wind  
Wind Speed 10 mph (East)    
Max Wind Speed 15 mph    
Max Gust Speed 24 mph    
Visibility 7 miles    
Events Fog , Snow    
Averages and records for this station are not official NWS values.
T = Trace of Precipitation, MM = Missing Value Source: NWS Daily Summary

Daily Weather History Graph

Daily Weather History Graph

Search for Another Location

Airport:

Trip Planner

Search our weather history database for the weather conditions in past years. The results will help you decide how hot, cold, wet, or windy it might be!

Date:

Astronomy

Feb. 18, 2014 Rise Set
Actual Time 8:12 AM AKST 5:40 PM AKST
Civil Twilight 7:28 AM AKST 6:24 PM AKST
Nautical Twilight 6:39 AM AKST 7:13 PM AKST
Astronomical Twilight 5:50 AM AKST 8:02 PM AKST
Moon 10:58 PM AKST (2/18) 8:43 AM AKST (2/18)
Length of Visible Light 10h 55m
Length of Day
9h 27m
Waning Gibbous, 86% of the Moon is Illuminated
Feb 18
Waning Gibbous
Feb 22
Last Quarter
Feb 28
New
Mar 8
First Quarter
Mar 16
Full

Hourly Weather History & Observations

Time (AKST) Temp. Windchill Dew Point Humidity Pressure Visibility Wind Dir Wind Speed Gust Speed Precip Events Conditions
12:53 AM 30.0 °F 21.1 °F 17.1 °F 59% 29.27 in 10.0 mi ENE 10.4 mph - N/A   Overcast
1:53 AM 30.0 °F 21.7 °F 18.0 °F 61% 29.28 in 10.0 mi East 9.2 mph 17.3 mph N/A   Overcast
2:22 AM 28.4 °F 19.7 °F 19.4 °F 69% 29.28 in 7.0 mi East 9.2 mph - 0.00 in Snow Light Snow
2:53 AM 28.0 °F 18.1 °F 21.0 °F 75% 29.27 in 4.0 mi East 11.5 mph - 0.00 in Snow Light Snow
3:13 AM 28.4 °F 18.0 °F 21.2 °F 74% 29.27 in 2.5 mi East 12.7 mph 21.9 mph 0.00 in Snow Light Snow
3:26 AM 26.6 °F 17.5 °F 21.2 °F 80% 29.27 in 1.5 mi East 9.2 mph 21.9 mph 0.00 in Snow Light Snow
3:49 AM 28.4 °F 18.0 °F 23.0 °F 80% 29.27 in 2.0 mi East 12.7 mph 20.7 mph 0.00 in Snow Light Snow
3:53 AM 28.0 °F 18.1 °F 23.0 °F 81% 29.27 in 2.0 mi East 11.5 mph 20.7 mph 0.00 in Snow Light Snow
4:00 AM 28.4 °F 17.5 °F 23.0 °F 80% 29.27 in 1.2 mi East 13.8 mph 23.0 mph 0.00 in Snow Light Snow
4:14 AM 28.4 °F 17.5 °F 24.8 °F 86% 29.27 in 0.8 mi ENE 13.8 mph 24.2 mph 0.00 in Snow Light Snow
4:18 AM 26.6 °F 15.2 °F 24.8 °F 93% 29.27 in 0.5 mi East 13.8 mph 24.2 mph 0.00 in Fog , Snow Snow
4:46 AM 28.4 °F 17.0 °F 24.8 °F 86% 29.27 in 1.0 mi East 15.0 mph 23.0 mph 0.01 in Snow Light Snow
4:53 AM 28.0 °F 16.5 °F 25.0 °F 88% 29.28 in 1.2 mi East 15.0 mph 23.0 mph 0.01 in Snow Light Snow
5:04 AM 28.4 °F 19.1 °F 24.8 °F 86% 29.28 in 2.0 mi ENE 10.4 mph 20.7 mph 0.00 in Snow Light Snow
5:49 AM 30.2 °F 21.9 °F 24.8 °F 80% 29.29 in 5.0 mi East 9.2 mph 21.9 mph 0.00 in Snow Light Snow
5:53 AM 30.0 °F 21.1 °F 25.0 °F 82% 29.29 in 6.0 mi East 10.4 mph 18.4 mph 0.00 in Snow Light Snow
6:04 AM 30.2 °F 20.8 °F 24.8 °F 80% 29.29 in 9.0 mi East 11.5 mph - 0.00 in   Overcast
6:53 AM 32.0 °F 23.0 °F 23.0 °F 69% 29.29 in 8.0 mi East 11.5 mph - 0.00 in Snow Light Snow
7:53 AM 34.0 °F 25.0 °F 21.0 °F 59% 29.30 in 10.0 mi ESE 12.7 mph 20.7 mph 0.01 in   Mostly Cloudy
8:53 AM 35.1 °F 26.4 °F 19.9 °F 54% 29.31 in 10.0 mi East 12.7 mph 23.0 mph N/A   Mostly Cloudy
9:53 AM 35.1 °F 29.3 °F 19.0 °F 52% 29.33 in 10.0 mi East 6.9 mph - N/A   Mostly Cloudy
10:53 AM 35.1 °F 27.9 °F 17.1 °F 48% 29.34 in 10.0 mi ESE 9.2 mph - N/A   Mostly Cloudy
11:53 AM 36.0 °F 29.6 °F 17.1 °F 46% 29.34 in 10.0 mi ESE 8.1 mph - N/A   Overcast
12:53 PM 36.0 °F 29.6 °F 17.1 °F 46% 29.34 in 10.0 mi East 8.1 mph - N/A   Mostly Cloudy
1:53 PM 37.0 °F 33.3 °F 18.0 °F 46% 29.34 in 10.0 mi ESE 4.6 mph - N/A   Mostly Cloudy
2:53 PM 37.0 °F 33.3 °F 17.1 °F 44% 29.34 in 10.0 mi ESE 4.6 mph - N/A   Mostly Cloudy
3:53 PM 36.0 °F - 17.1 °F 46% 29.34 in 10.0 mi Calm Calm - N/A   Mostly Cloudy
4:53 PM 30.9 °F 25.2 °F 17.1 °F 57% 29.34 in 10.0 mi ENE 5.8 mph - N/A   Mostly Cloudy
5:53 PM 28.9 °F 21.9 °F 14.0 °F 54% 29.34 in 10.0 mi NE 6.9 mph - N/A   Mostly Cloudy
6:53 PM 28.0 °F 22.8 °F 10.9 °F 49% 29.34 in 10.0 mi ENE 4.6 mph - N/A   Overcast
7:53 PM 26.1 °F 18.4 °F 10.9 °F 53% 29.35 in 10.0 mi NE 6.9 mph - N/A   Scattered Clouds
8:53 PM 28.0 °F 20.8 °F 9.0 °F 45% 29.35 in 10.0 mi ENE 6.9 mph - N/A   Scattered Clouds
9:53 PM 27.0 °F 21.6 °F 12.0 °F 53% 29.36 in 10.0 mi NE 4.6 mph - N/A   Scattered Clouds
10:53 PM 19.9 °F - 12.9 °F 74% 29.38 in 10.0 mi Calm Calm - N/A   Overcast
11:53 PM 24.1 °F 18.2 °F 15.1 °F 69% 29.41 in 10.0 mi WNW 4.6 mph - N/A   Overcast